Time,TemperatureF,DewpointF,PressureIn,WindDirection,WindDirectionDegrees,WindSpeedMPH,WindSpeedGustMPH,Humidity,HourlyPrecipIn,Conditions,Clouds,dailyrainin,SoftwareType,DateUTC
2013-02-12 00:01:00,-5.0,-11.0,30.49,ESE,103,0.0,-999.0,75,-99.99,,,-99.99,,2013-02-12 07:01:00,
2013-02-12 00:11:00,-5.0,-11.0,30.49,ESE,103,0.0,-999.0,75,-99.99,,,-99.99,,2013-02-12 07:11:00,
2013-02-12 00:21:00,-6.0,-11.0,30.50,ESE,103,0.0,-999.0,77,-99.99,,,-99.99,,2013-02-12 07:21:00,
2013-02-12 00:31:00,-6.0,-11.0,30.50,ESE,103,0.0,-999.0,78,-99.99,,,-99.99,,2013-02-12 07:31:00,
2013-02-12 00:41:00,-6.0,-11.0,30.50,ESE,103,0.0,-999.0,78,-99.99,,,-99.99,,2013-02-12 07:41:00,
2013-02-12 00:52:00,-6.0,-11.0,30.51,ESE,103,0.0,-999.0,77,-99.99,,,-99.99,,2013-02-12 07:52:00,
2013-02-12 01:01:00,-6.0,-12.0,30.50,ESE,103,0.0,-999.0,75,-99.99,,,-99.99,,2013-02-12 08:01:00,
2013-02-12 01:11:00,-6.0,-12.0,30.50,ESE,103,0.0,-999.0,75,-99.99,,,-99.99,,2013-02-12 08:11:00,
2013-02-12 01:21:00,-7.0,-12.0,30.50,ESE,103,0.0,-999.0,78,-99.99,,,-99.99,,2013-02-12 08:21:00,
2013-02-12 01:31:00,-6.0,-11.0,30.51,ESE,103,0.0,-999.0,78,-99.99,,,-99.99,,2013-02-12 08:31:00,
2013-02-12 01:41:00,-6.0,-11.0,30.51,ESE,103,0.0,-999.0,78,-99.99,,,-99.99,,2013-02-12 08:41:00,
2013-02-12 01:52:00,-5.0,-10.0,30.51,ESE,103,0.0,-999.0,80,-99.99,,,-99.99,,2013-02-12 08:52:00,
2013-02-12 02:01:00,-5.0,-10.0,30.52,ESE,103,0.0,-999.0,77,-99.99,,,-99.99,,2013-02-12 09:01:00,
2013-02-12 02:11:00,-5.0,-10.0,30.52,ESE,103,0.0,-999.0,77,-99.99,,,-99.99,,2013-02-12 09:11:00,
2013-02-12 02:21:00,-4.0,-9.0,30.51,ESE,103,0.0,-999.0,78,-99.99,,,-99.99,,2013-02-12 09:21:00,
2013-02-12 02:32:00,-2.0,-7.0,30.52,ESE,103,0.0,-999.0,79,-99.99,,,-99.99,,2013-02-12 09:32:00,
2013-02-12 02:41:00,-2.0,-7.0,30.52,ESE,103,0.0,-999.0,79,-99.99,,,-99.99,,2013-02-12 09:41:00,
2013-02-12 02:52:00,-1.0,-7.0,30.51,ESE,103,0.0,-999.0,76,-99.99,,,-99.99,,2013-02-12 09:52:00,
2013-02-12 03:01:00,0.0,-7.0,30.51,ESE,103,1.0,-999.0,73,-99.99,,,-99.99,,2013-02-12 10:01:00,
2013-02-12 03:11:00,0.0,-7.0,30.51,ESE,103,0.0,-999.0,73,-99.99,,,-99.99,,2013-02-12 10:11:00,
2013-02-12 03:21:00,0.0,-7.0,30.51,ESE,103,0.0,-999.0,73,-99.99,,,-99.99,,2013-02-12 10:21:00,
2013-02-12 03:31:00,0.0,-7.0,30.51,East,96,1.0,-999.0,73,-99.99,,,-99.99,,2013-02-12 10:31:00,
2013-02-12 03:43:00,0.0,-7.0,30.51,East,96,1.0,-999.0,73,-99.99,,,-99.99,,2013-02-12 10:43:00,
2013-02-12 03:52:00,0.0,-7.0,30.49,East,96,0.0,-999.0,72,-99.99,,,-99.99,,2013-02-12 10:52:00,
2013-02-12 04:01:00,0.0,-7.0,30.50,North,350,0.0,-999.0,71,-99.99,,,-99.99,,2013-02-12 11:01:00,
2013-02-12 04:11:00,0.0,-7.0,30.50,North,350,0.0,-999.0,71,-99.99,,,-99.99,,2013-02-12 11:11:00,
2013-02-12 04:21:00,0.0,-7.0,30.50,NNE,31,0.0,-999.0,72,-99.99,,,-99.99,,2013-02-12 11:21:00,
2013-02-12 04:31:00,0.0,-7.0,30.51,ESE,104,1.0,-999.0,71,-99.99,,,-99.99,,2013-02-12 11:31:00,
2013-02-12 04:41:00,0.0,-7.0,30.51,ESE,104,1.0,-999.0,71,-99.99,,,-99.99,,2013-02-12 11:41:00,
2013-02-12 04:52:00,0.0,-7.0,30.51,ENE,66,1.0,-999.0,71,-99.99,,,-99.99,,2013-02-12 11:52:00,
2013-02-12 05:01:00,0.0,-7.0,30.52,SW,217,1.0,-999.0,70,-99.99,,,-99.99,,2013-02-12 12:01:00,
2013-02-12 05:11:00,0.0,-7.0,30.52,SW,217,1.0,-999.0,70,-99.99,,,-99.99,,2013-02-12 12:11:00,
2013-02-12 05:21:00,-1.0,-8.0,30.53,SSW,212,0.0,-999.0,70,-99.99,,,-99.99,,2013-02-12 12:21:00,
2013-02-12 05:32:00,0.0,-7.0,30.53,SSW,207,0.0,-999.0,70,-99.99,,,-99.99,,2013-02-12 12:32:00,
2013-02-12 05:42:00,0.0,-7.0,30.53,SSW,207,0.0,-999.0,70,-99.99,,,-99.99,,2013-02-12 12:42:00,
2013-02-12 05:53:00,0.0,-7.0,30.54,SSW,198,1.0,-999.0,70,-99.99,,,-99.99,,2013-02-12 12:53:00,
2013-02-12 06:01:00,0.0,-8.0,30.54,SSW,206,1.0,-999.0,69,-99.99,,,-99.99,,2013-02-12 13:01:00,
2013-02-12 06:11:00,0.0,-8.0,30.54,SSW,212,1.0,-999.0,67,-99.99,,,-99.99,,2013-02-12 13:11:00,
2013-02-12 06:22:00,0.0,-8.0,30.54,SSW,212,1.0,-999.0,67,-99.99,,,-99.99,,2013-02-12 13:22:00,
2013-02-12 06:32:00,0.0,-9.0,30.54,ESE,112,1.0,-999.0,65,-99.99,,,-99.99,,2013-02-12 13:32:00,
2013-02-12 06:42:00,0.0,-9.0,30.54,ESE,112,1.0,-999.0,65,-99.99,,,-99.99,,2013-02-12 13:42:00,
2013-02-12 06:52:00,0.0,-9.0,30.54,NNE,15,1.0,-999.0,65,-99.99,,,-99.99,,2013-02-12 13:52:00,
2013-02-12 07:01:00,0.0,-9.0,30.54,SSE,161,1.0,-999.0,64,-99.99,,,-99.99,,2013-02-12 14:01:00,
2013-02-12 07:11:00,0.0,-9.0,30.54,SSE,161,1.0,-999.0,64,-99.99,,,-99.99,,2013-02-12 14:11:00,
2013-02-12 07:21:00,0.0,-9.0,30.55,SSE,155,0.0,-999.0,64,-99.99,,,-99.99,,2013-02-12 14:21:00,
2013-02-12 07:32:00,-1.0,-10.0,30.56,ESE,104,1.0,-999.0,66,-99.99,,,-99.99,,2013-02-12 14:32:00,
2013-02-12 07:42:00,-1.0,-10.0,30.56,ESE,104,1.0,-999.0,66,-99.99,,,-99.99,,2013-02-12 14:42:00,
2013-02-12 07:52:00,-1.0,-9.0,30.56,ESE,104,1.0,-999.0,67,-99.99,,,-99.99,,2013-02-12 14:52:00,
2013-02-12 08:02:00,0.0,-9.0,30.56,ESE,105,0.0,-999.0,66,-99.99,,,-99.99,,2013-02-12 15:02:00,
2013-02-12 08:11:00,1.0,-9.0,30.56,SW,233,1.0,-999.0,62,-99.99,,,-99.99,,2013-02-12 15:11:00,
2013-02-12 08:21:00,1.0,-9.0,30.56,SW,233,1.0,-999.0,62,-99.99,,,-99.99,,2013-02-12 15:21:00,
2013-02-12 08:32:00,2.0,-9.0,30.56,WSW,248,1.0,-999.0,59,-99.99,,,-99.99,,2013-02-12 15:32:00,
2013-02-12 08:42:00,2.0,-9.0,30.56,WSW,248,1.0,-999.0,59,-99.99,,,-99.99,,2013-02-12 15:42:00,
2013-02-12 08:52:00,4.0,-7.0,30.57,WSW,237,1.0,-999.0,60,-99.99,,,-99.99,,2013-02-12 15:52:00,
2013-02-12 09:01:00,5.0,-7.0,30.57,WSW,246,1.0,-999.0,57,-99.99,,,-99.99,,2013-02-12 16:01:00,
2013-02-12 09:11:00,5.0,-7.0,30.57,WSW,246,1.0,-999.0,57,-99.99,,,-99.99,,2013-02-12 16:11:00,
2013-02-12 09:22:00,6.0,-6.0,30.56,SSW,192,1.0,-999.0,56,-99.99,,,-99.99,,2013-02-12 16:22:00,
2013-02-12 09:31:00,7.0,-6.0,30.56,SSW,194,2.0,-999.0,53,-99.99,,,-99.99,,2013-02-12 16:31:00,
2013-02-12 09:41:00,7.0,-6.0,30.56,SSW,194,2.0,-999.0,53,-99.99,,,-99.99,,2013-02-12 16:41:00,
2013-02-12 09:52:00,8.0,-6.0,30.56,SW,224,1.0,-999.0,53,-99.99,,,-99.99,,2013-02-12 16:52:00,
2013-02-12 10:01:00,8.0,-5.0,30.57,SW,221,1.0,-999.0,54,-99.99,,,-99.99,,2013-02-12 17:01:00,
2013-02-12 10:12:00,8.0,-5.0,30.57,SW,221,1.0,-999.0,54,-99.99,,,-99.99,,2013-02-12 17:12:00,
2013-02-12 10:21:00,8.0,-6.0,30.57,WNW,302,1.0,-999.0,53,-99.99,,,-99.99,,2013-02-12 17:21:00,
2013-02-12 10:32:00,9.0,-5.0,30.58,SSE,150,2.0,-999.0,52,-99.99,,,-99.99,,2013-02-12 17:32:00,
2013-02-12 10:42:00,9.0,-5.0,30.58,SSE,150,2.0,-999.0,52,-99.99,,,-99.99,,2013-02-12 17:42:00,
2013-02-12 10:52:00,10.0,-4.0,30.58,SW,222,2.0,-999.0,52,-99.99,,,-99.99,,2013-02-12 17:52:00,
2013-02-12 11:01:00,12.0,-3.0,30.58,SSW,212,2.0,-999.0,50,-99.99,,,-99.99,,2013-02-12 18:01:00,
2013-02-12 11:11:00,13.0,-3.0,30.59,SSW,199,3.0,-999.0,47,-99.99,,,-99.99,,2013-02-12 18:11:00,
2013-02-12 11:23:00,13.0,-3.0,30.59,SSW,199,3.0,-999.0,47,-99.99,,,-99.99,,2013-02-12 18:23:00,
2013-02-12 11:31:00,14.0,-2.0,30.59,WSW,244,2.0,-999.0,47,-99.99,,,-99.99,,2013-02-12 18:31:00,
2013-02-12 11:41:00,14.0,-2.0,30.59,WSW,244,2.0,-999.0,47,-99.99,,,-99.99,,2013-02-12 18:41:00,
2013-02-12 11:52:00,15.0,-1.0,30.58,SSW,194,3.0,-999.0,48,-99.99,,,-99.99,,2013-02-12 18:52:00,
2013-02-12 12:02:00,15.0,-2.0,30.58,NW,322,2.0,-999.0,47,-99.99,,,-99.99,,2013-02-12 19:02:00,
2013-02-12 12:11:00,15.0,-2.0,30.58,NW,322,2.0,-999.0,47,-99.99,,,-99.99,,2013-02-12 19:11:00,
2013-02-12 12:21:00,16.0,1.0,30.57,South,180,2.0,-999.0,50,-99.99,,,-99.99,,2013-02-12 19:21:00,
2013-02-12 12:31:00,18.0,1.0,30.57,SW,236,2.0,-999.0,46,-99.99,,,-99.99,,2013-02-12 19:31:00,
2013-02-12 12:41:00,18.0,0.0,30.56,SW,214,2.0,-999.0,45,-99.99,,,-99.99,,2013-02-12 19:41:00,
2013-02-12 12:52:00,18.0,0.0,30.56,SW,214,2.0,-999.0,45,-99.99,,,-99.99,,2013-02-12 19:52:00,
2013-02-12 13:01:00,19.0,3.0,30.55,WSW,239,2.0,-999.0,49,-99.99,,,-99.99,,2013-02-12 20:01:00,
2013-02-12 13:11:00,19.0,3.0,30.55,WSW,239,2.0,-999.0,49,-99.99,,,-99.99,,2013-02-12 20:11:00,
2013-02-12 13:21:00,19.0,3.0,30.55,SSW,208,2.0,-999.0,48,-99.99,,,-99.99,,2013-02-12 20:21:00,
2013-02-12 13:31:00,20.0,3.0,30.54,SW,223,3.0,-999.0,46,-99.99,,,-99.99,,2013-02-12 20:31:00,
2013-02-12 13:41:00,20.0,3.0,30.54,SW,223,3.0,-999.0,46,-99.99,,,-99.99,,2013-02-12 20:41:00,
2013-02-12 13:52:00,20.0,4.0,30.53,North,355,2.0,-999.0,48,-99.99,,,-99.99,,2013-02-12 20:52:00,
2013-02-12 14:01:00,21.0,3.0,30.53,WSW,257,2.0,-999.0,44,-99.99,,,-99.99,,2013-02-12 21:01:00,
2013-02-12 14:11:00,21.0,3.0,30.53,WSW,257,2.0,-999.0,44,-99.99,,,-99.99,,2013-02-12 21:11:00,
2013-02-12 14:21:00,21.0,2.0,30.53,WSW,238,1.0,-999.0,43,-99.99,,,-99.99,,2013-02-12 21:21:00,
2013-02-12 14:31:00,22.0,4.0,30.52,ENE,64,1.0,-999.0,45,-99.99,,,-99.99,,2013-02-12 21:31:00,
2013-02-12 14:42:00,22.0,3.0,30.52,West,278,2.0,-999.0,43,-99.99,,,-99.99,,2013-02-12 21:42:00,
2013-02-12 14:52:00,22.0,3.0,30.52,West,278,2.0,-999.0,43,-99.99,,,-99.99,,2013-02-12 21:52:00,
2013-02-12 15:01:00,21.0,3.0,30.53,ESE,108,2.0,-999.0,44,-99.99,,,-99.99,,2013-02-12 22:01:00,
2013-02-12 15:12:00,21.0,3.0,30.53,ESE,108,2.0,-999.0,44,-99.99,,,-99.99,,2013-02-12 22:12:00,
2013-02-12 15:21:00,20.0,3.0,30.53,NW,323,2.0,-999.0,46,-99.99,,,-99.99,,2013-02-12 22:21:00,
2013-02-12 15:32:00,20.0,3.0,30.52,ESE,102,2.0,-999.0,47,-99.99,,,-99.99,,2013-02-12 22:32:00,
2013-02-12 15:41:00,20.0,3.0,30.52,ESE,102,2.0,-999.0,47,-99.99,,,-99.99,,2013-02-12 22:41:00,
2013-02-12 15:52:00,19.0,3.0,30.52,East,82,2.0,-999.0,48,-99.99,,,-99.99,,2013-02-12 22:52:00,
2013-02-12 16:01:00,18.0,3.0,30.52,SE,132,2.0,-999.0,51,-99.99,,,-99.99,,2013-02-12 23:01:00,
2013-02-12 16:11:00,17.0,2.0,30.53,ENE,68,3.0,-999.0,52,-99.99,,,-99.99,,2013-02-12 23:11:00,
2013-02-12 16:21:00,17.0,2.0,30.53,ENE,68,3.0,-999.0,52,-99.99,,,-99.99,,2013-02-12 23:21:00,
2013-02-12 16:31:00,16.0,2.0,30.52,ESE,121,2.0,-999.0,53,-99.99,,,-99.99,,2013-02-12 23:31:00,
2013-02-12 16:42:00,16.0,2.0,30.52,ESE,121,2.0,-999.0,53,-99.99,,,-99.99,,2013-02-12 23:42:00,
2013-02-12 16:52:00,15.0,1.0,30.52,ESE,121,2.0,-999.0,53,-99.99,,,-99.99,,2013-02-12 23:52:00,
2013-02-12 17:02:00,15.0,1.0,30.52,ESE,121,2.0,-999.0,53,-99.99,,,-99.99,,2013-02-13 00:02:00,
2013-02-12 17:11:00,15.0,1.0,30.52,ESE,121,2.0,-999.0,53,-99.99,,,-99.99,,2013-02-13 00:11:00,
2013-02-12 17:21:00,15.0,0.0,30.52,East,97,2.0,-999.0,50,-99.99,,,-99.99,,2013-02-13 00:21:00,
2013-02-12 17:32:00,14.0,-1.0,30.53,SE,129,2.0,-999.0,51,-99.99,,,-99.99,,2013-02-13 00:32:00,
2013-02-12 17:42:00,14.0,-1.0,30.53,SE,129,2.0,-999.0,51,-99.99,,,-99.99,,2013-02-13 00:42:00,
2013-02-12 17:52:00,13.0,-2.0,30.52,East,88,1.0,-999.0,51,-99.99,,,-99.99,,2013-02-13 00:52:00,
2013-02-12 18:01:00,13.0,-1.0,30.52,ESE,107,2.0,-999.0,52,-99.99,,,-99.99,,2013-02-13 01:01:00,
2013-02-12 18:11:00,13.0,-1.0,30.52,ESE,107,2.0,-999.0,52,-99.99,,,-99.99,,2013-02-13 01:11:00,
2013-02-12 18:21:00,13.0,-1.0,30.53,ESE,103,2.0,-999.0,52,-99.99,,,-99.99,,2013-02-13 01:21:00,
2013-02-12 18:31:00,12.0,-2.0,30.52,ESE,123,2.0,-999.0,53,-99.99,,,-99.99,,2013-02-13 01:31:00,
2013-02-12 18:42:00,12.0,-2.0,30.52,ESE,123,2.0,-999.0,53,-99.99,,,-99.99,,2013-02-13 01:42:00,
2013-02-12 18:52:00,12.0,-2.0,30.52,East,86,2.0,-999.0,53,-99.99,,,-99.99,,2013-02-13 01:52:00,
2013-02-12 19:01:00,12.0,-2.0,30.52,WSW,240,2.0,-999.0,53,-99.99,,,-99.99,,2013-02-13 02:01:00,
2013-02-12 19:11:00,12.0,-2.0,30.52,WSW,240,2.0,-999.0,53,-99.99,,,-99.99,,2013-02-13 02:11:00,
2013-02-12 19:21:00,12.0,-1.0,30.51,South,182,1.0,-999.0,54,-99.99,,,-99.99,,2013-02-13 02:21:00,
2013-02-12 19:31:00,12.0,-1.0,30.53,ESE,109,2.0,-999.0,54,-99.99,,,-99.99,,2013-02-13 02:31:00,
2013-02-12 19:41:00,12.0,-1.0,30.53,ESE,109,2.0,-999.0,54,-99.99,,,-99.99,,2013-02-13 02:41:00,
2013-02-12 19:52:00,12.0,-1.0,30.53,ESE,107,2.0,-999.0,55,-99.99,,,-99.99,,2013-02-13 02:52:00,
2013-02-12 20:01:00,12.0,-1.0,30.53,ESE,117,2.0,-999.0,56,-99.99,,,-99.99,,2013-02-13 03:01:00,
2013-02-12 20:11:00,12.0,0.0,30.54,ESE,123,2.0,-999.0,57,-99.99,,,-99.99,,2013-02-13 03:11:00,
2013-02-12 20:21:00,12.0,0.0,30.54,ESE,123,2.0,-999.0,57,-99.99,,,-99.99,,2013-02-13 03:21:00,
2013-02-12 20:32:00,11.0,0.0,30.53,South,170,1.0,-999.0,59,-99.99,,,-99.99,,2013-02-13 03:32:00,
2013-02-12 20:41:00,11.0,0.0,30.53,South,170,1.0,-999.0,59,-99.99,,,-99.99,,2013-02-13 03:41:00,
2013-02-12 20:52:00,11.0,0.0,30.53,South,170,1.0,-999.0,59,-99.99,,,-99.99,,2013-02-13 03:52:00,
2013-02-12 21:01:00,12.0,0.0,30.53,South,174,2.0,-999.0,59,-99.99,,,-99.99,,2013-02-13 04:01:00,
2013-02-12 21:11:00,12.0,0.0,30.53,South,174,2.0,-999.0,59,-99.99,,,-99.99,,2013-02-13 04:11:00,
2013-02-12 21:21:00,12.0,1.0,30.53,East,92,3.0,-999.0,61,-99.99,,,-99.99,,2013-02-13 04:21:00,
2013-02-12 21:31:00,13.0,2.0,30.51,SE,134,2.0,-999.0,61,-99.99,,,-99.99,,2013-02-13 04:31:00,
2013-02-12 21:41:00,13.0,2.0,30.51,SE,134,2.0,-999.0,61,-99.99,,,-99.99,,2013-02-13 04:41:00,
2013-02-12 21:52:00,13.0,2.0,30.51,SW,233,2.0,-999.0,62,-99.99,,,-99.99,,2013-02-13 04:52:00,
2013-02-12 22:01:00,13.0,2.0,30.52,NE,36,1.0,-999.0,62,-99.99,,,-99.99,,2013-02-13 05:01:00,
2013-02-12 22:11:00,12.0,2.0,30.52,SW,225,1.0,-999.0,63,-99.99,,,-99.99,,2013-02-13 05:11:00,
2013-02-12 22:22:00,12.0,2.0,30.52,SW,225,1.0,-999.0,63,-99.99,,,-99.99,,2013-02-13 05:22:00,
2013-02-12 22:31:00,12.0,2.0,30.51,East,98,2.0,-999.0,64,-99.99,,,-99.99,,2013-02-13 05:31:00,
2013-02-12 22:41:00,12.0,2.0,30.51,East,98,2.0,-999.0,64,-99.99,,,-99.99,,2013-02-13 05:41:00,
2013-02-12 22:52:00,11.0,2.0,30.50,ESE,110,2.0,-999.0,65,-99.99,,,-99.99,,2013-02-13 05:52:00,
2013-02-12 23:02:00,12.0,3.0,30.47,East,101,3.0,-999.0,67,-99.99,,,-99.99,,2013-02-13 06:02:00,
2013-02-12 23:11:00,12.0,3.0,30.47,East,101,3.0,-999.0,67,-99.99,,,-99.99,,2013-02-13 06:11:00,
2013-02-12 23:21:00,12.0,3.0,30.47,East,101,3.0,-999.0,67,-99.99,,,-99.99,,2013-02-13 06:21:00,
2013-02-12 23:32:00,11.0,2.0,30.48,SSW,196,3.0,-999.0,67,-99.99,,,-99.99,,2013-02-13 06:32:00,
2013-02-12 23:42:00,11.0,3.0,30.48,East,85,3.0,-999.0,69,-99.99,,,-99.99,,2013-02-13 06:42:00,
2013-02-12 23:52:00,11.0,3.0,30.48,East,85,3.0,-999.0,69,-99.99,,,-99.99,,2013-02-13 06:52:00,